www.pogodaiklimat.ru

Погода и климат >> Архив погоды >> Антарктида >> SANAE


ПОГОДА в SANAE

  • Прогноз погоды в SANAE
  • Монитор погоды в SANAE
  • Климат города

АРХИВ ПОГОДЫ в SANAE

Время (UTC), дата Ветер
(напр.,м/с)
 
Видим.   Явления Облачность Т
(С)
Тd
(С)
f
(%)
Тe
(С)
Тes
(С)
Комфортность P
(гПа)
Po
(гПа)
Тmin
(С)
Tmax
(С)
R
(мм)
R24
(мм)
S
(см)
21 14.11 ЮВ 9 н/о н/о -16.2 979.2 875.6 -16.4 -13.5
00 15.11 ЮВ 9 н/о н/о -17.6 981.0 876.7 -18.1 -13.5
03 15.11 ЮВ 10 н/о н/о -18.0 980.9 876.4 -18.4 -13.5
06 15.11 В 11 >70 км ясно -16.0 981.0 877.3 -18.4
09 15.11 В 7 >70 км 1/0 1000 м
[Ci sp]
-13.3 981.3 878.6 -18.4 -13.0
12 15.11 ЮВ 4 >70 км 3/0 1500 м
[Ci sp]
-11.7 982.1 879.9 -18.4 -11.7
15 15.11 ЮВ 5 н/о н/о -12.3 983.1 880.5 -12.4 -11.3
18 15.11 ЮВ 4 >70 км ясно -12.5 984.4 881.6 -13.1 -11.3
21 15.11 ЮВ 3 н/о н/о -13.0 985.8 882.7 -13.5 -11.3
00 16.11 ЮВ 3 н/о н/о -15.2 987.3 883.2 -16.1 -11.3
03 16.11 ЮВ 5 н/о н/о -17.4 988.9 883.8 -17.6 -11.3
06 16.11 ЮВ 6 >70 км ясно -16.0 989.2 884.6 -18.1
09 16.11 ЮВ 4 >70 км ясно -13.1 989.2 885.7 -18.1 -13.0
12 16.11 З 2 >70 км ясно -11.3 988.9 886.1 -18.1 -8.4
15 16.11 Ю 2 н/о н/о -11.6 989.6 886.6 -12.1 -8.4
18 16.11 Ю 2 >70 км 5/3 300 м
[Sc Ac As]
-11.9 990.1 887.0 -12.1 -8.4
21 16.11 З 2 н/о н/о -11.1 989.4 886.6 -12.3 -8.4
00 17.11 ЮВ 7 н/о н/о -14.0 989.6 885.7 -14.6 -8.4
03 17.11 З 2 н/о н/о -11.1 988.4 885.7 -14.7 -8.4
06 17.11 ЮЗ 2 н/о н/о -11.0 987.7 885.1 -14.7
09 17.11 ЮВ 2 н/о н/о -7.5 985.7 884.6 -14.7 -7.5
12 17.11 ЮВ 5 >70 км 9/9 300 м
[Sc]
-8.6 985.8 884.3 -14.7 -7.4
15 17.11 В 8 н/о н/о -8.9 984.3 882.9 -9.1 -7.4
18 17.11 В 12 >70 км позёмок {метель} 9/9 600 м
[Sc]
-10.1 981.6 880.0 -10.3 -7.4
21 17.11 В 16 н/о н/о -10.0 979.5 878.2 -10.4 -7.4
00 18.11 В 16 н/о н/о -10.2 977.4 876.2 -10.6 -7.4
03 18.11 В 22 н/о н/о -9.7 974.6 873.9 -11.0 -7.4
06 18.11 В 19 >70 км позёмок {метель} 9/9 300 м
[Sc]
-9.9 974.0 873.3 -11.0
09 18.11 В 21 н/о н/о -9.4 974.4 873.8 -11.0 -9.3
12 18.11 В 20 1000 м слабый снег 10/0 300 м
[As op]
-9.2 973.3 872.9 -11.0 -8.9
15 18.11 В 21 н/о н/о -9.3 971.1 870.9 -9.6 -8.9
18 18.11 В 24 <100 м сильный снег 10/0 300 м
[As op]
-9.5 969.8 869.6 -9.7 -8.9
21 18.11 В 23 н/о н/о -9.4 969.3 869.2 -9.9 -8.9
00 19.11 В 22 н/о н/о -9.7 968.9 868.8 -10.0 -8.9
03 19.11 В 21 н/о н/о -10.0 969.7 869.4 -10.3 -8.9
06 19.11 В 23 <100 м сильный снег 10/0 300 м
[As op]
-10.3 970.4 869.9 -10.6
09 19.11 В 19 <100 м сильный снег 10/0 300 м
[As op]
-9.8 971.5 871.1 -10.6 -9.6
12 19.11 В 19 <100 м сильный снег 10/0 300 м
[As op]
-9.6 971.5 871.1 -10.6 -9.4
15 19.11 В 18 н/о н/о -9.5 971.5 871.2 -9.8 -9.2
18 19.11 В 17 <100 м снег 10/0 300 м
[As op]
-10.0 972.6 872.0 -10.2 -9.2
21 19.11 В 16 н/о н/о -10.6 973.5 872.6 -10.7 -9.2
00 20.11 В 17 н/о н/о -11.1 973.2 872.1 -11.3 -9.2
03 20.11 В 17 н/о н/о -11.0 974.1 873.0 -11.5 -9.2
06 20.11 В 14 <100 м сильный снег 10/0 300 м
[As op]
-10.9 976.0 874.7 -11.5
09 20.11 В 15 <100 м снег 10/0 300 м
[As op]
-10.7 976.5 875.2 -11.5 -10.6
12 20.11 В 12 100 м снег 10/0 300 м
[As op]
-10.9 978.6 877.0 -11.5 -10.6
15 20.11 В 12 н/о н/о -10.6 978.4 877.0 -11.1 -10.4
18 20.11 В 15 <100 м снег 10/0 300 м
[As op]
-10.4 978.8 877.4 -11.1 -10.2
21 20.11 В 17 н/о н/о -10.2 979.6 878.2 -11.1 -10.2
00 21.11 В 20 н/о н/о -10.6 980.1 878.5 -11.1 -10.0
03 21.11 В 22 н/о н/о -10.8 980.8 879.0 -11.1 -10.0
06 21.11 В 25 <100 м сильный снег 10/0 300 м
[As op]
-10.5 980.2 878.6 -11.1
09 21.11 В 24 <100 м сильный снег 10/0 300 м
[As op]
-9.9 981.3 879.8 -11.1 -9.7
12 21.11 В 23 <100 м сильный снег 10/0 300 м
[As op]
-9.3 981.3 880.0 -11.1 -9.1
15 21.11 В 24 н/о н/о -9.2 981.1 879.9 -9.5 -8.9
18 21.11 В 17 <100 м сильный снег 10/0 300 м
[As op]
-9.4 981.9 880.5 -9.5 -8.9

 

Местоположение метеостанции SANAE (Антарктида): широта -71.70 долгота -2.80 высота над уровнем моря 817 м.

В архиве по умолчанию представлена погода в SANAE за последнюю неделю. Архивные данные за месяц целиком и за предыдущие месяцы, начиная с января 2011 года, Вы можете получить, выбрав интересующий диапазон дат из раскрывающегося списка и нажав кнопку "Ввод!".


*Определитесь, кто Вы:
робот инопланетянин человек

Внимание! Время в таблицах - всемирное. Для получения местного времени необходимо прибавить поправку, которая в SANAE равна 0 ч.

Смотрите также архив погоды в соседних городах и на ближайших метеорологических станциях:

Погода в Troll (Антарктида) (183 км)
Погода в Neumayer Station (Антарктида) (227 км)
Погода в Soerasen (Антарктида) (257 км)
Погода в Kohnen Ep9 (Антарктида) (378 км)
Погода в Nordenskiold Base (Антарктида) (386 км)
Погода в Maitri (Антарктида) (530 км)
Погода в Novolazarevskaja (Антарктида) (532 км)
Погода в Halley (Антарктида) (851 км)
Погода в Base Belgrano Ii (Антарктида) (1130 км)
Погода в Relay Station (Антарктида) (1487 км)

Пояснения к столбцам:

Ветер - указаны скорость ветра в м/с - средняя за 10 мин, порывы в срок и между сроками (в фигурных скобках) и направление, откуда дует ветер: С - северный, СВ - северо-восточный, В - восточный, ЮВ - юго-восточный, Ю - южный, ЮЗ - юго-западный, З - западный, СЗ - северо-западный.
Видимость - горизонтальная дальность видимости в метрах или километрах. При видимости от 1 до 10 км при отсутствии осадков обычно наблюдается дымка, при ухудшении видимости до 1 км и менее - туман. В сухую погоду видимость может ухудшаться дымом, пылью или мглою.
Явления - указаны атмосферные явления, наблюдавшиеся в срок или в последний час перед сроком; фигурными скобками обозначены явления, наблюдавшиеся между сроками (за 1-3 часа до срока); квадратными скобками обозначены град или гололедные отложения с указанием их диаметра в мм.
Облачность - указаны через наклонную черту общая и нижняя облачность в баллах и высота нижней границы облаков в метрах; квадратными скобками обозначены формы облаков: Ci - перистые, Cs - перисто-слоистые, Cc - перисто-кучевые, Ac - высококучевые, As - высокослоистые, Sc - слоисто-кучевые, Ns - слоисто-дождевые, Cu - кучевые, Cb - кучево-дождевые. Подробнее классификацию облаков см. в Атласе облаков (PDF).
T - Температура воздуха - температура, измеренная на высоте 2 м над землей.
Td - Температура точки росы - температура, при понижении до которой содержащийся в воздухе водяной пар достигнет насыщения.
f - Относительная влажность воздуха - влажноcть воздуха, измеренная на высоте 2 м над землей.
Te - Эффективная температура - температура, которую ощущает одетый по сезону человек в тени. Характеристика душности погоды. При расчете учитывается влияние влажности воздуха и скорости ветра на теплоощущения человека.
Tes - Эффективная температура на солнце - температура, которую ощущает человек, с поправкой на солнечный нагрев. Характеристика знойности погоды. Зависит от высоты солнца над горизонтом, облачности и скорости ветра. Ночью, в пасмурную погоду, а также при ветре 12 м/с и более поправка равна нулю.
P - Атмосферное давление - приведенное к уровню моря атмосферное давление.
Po - Атмосферное давление - измеренное на уровне метеостанции атмосферное давление.
Tmin - Минимальная температура - минимум температуры воздуха на высоте 2 м над землей.
Tmax - Максимальная температура - максимум температуры воздуха на высоте 2 м над землей.
R - Количество осадков - Количество выпавших осадков за период времени, мм. При наведении курсора мыши на число - период времени, за который выпало указанное количество осадков.
R24 - Количество осадков - Количество выпавших осадков за 24 часа, мм.
S - Снежный покров - Высота снежного покрова, см. При наведении курсора мыши на число - состояние снежного покрова и степень покрытия местности в баллах.